Regional Weather Roundup
Issued by NWS Little Rock, AR

Home | Current Version | Previous Version | Graphics & Text | Print | Product List | Glossary On
Versions: 1 2 3 4 5 6 7 8 9 10 11 12 13 14 15 16 17 18 19 20 21 22 23 24 25 26 27 28
000
ASUS44 KLZK 161705
RWRLZK

WEATHER ROUNDUP FOR ARKANSAS
NATIONAL WEATHER SERVICE LITTLE ROCK AR
1200 PM CDT WED APR 16 2014

NOTE: "FAIR" INDICATES FEW OR NO CLOUDS BELOW 12,000 FEET WITH NO
SIGNIFICANT WEATHER AND/OR OBSTRUCTIONS TO VISIBILITY.

ARZ001-003-010-029-161800-
NORTHWEST ARKANSAS

CITY           SKY/WX    TMP DP  RH WIND       PRES   REMARKS
FAYETTEVILLE   MOSUNNY   53  32  44 SE15G24   30.12S
FORT SMITH     PTSUNNY   59  32  36 SE14G22   30.15F
HARRISON       SUNNY     55  27  34 S23G33    30.15F
BENTONVILLE    MOSUNNY   55  30  38 S18G26    30.11F
ROGERS         MOSUNNY   57  28  33 S22G31    30.10F
HIGHFILL       MOSUNNY   55  31  39 S17G31    30.09S
SPRINGDALE     PTSUNNY   54  30  40 S16G28    30.13S
$$

ARZ004-005-016-161800-
NORTH CENTRAL ARKANSAS

CITY           SKY/WX    TMP DP  RH WIND       PRES   REMARKS
BATESVILLE     SUNNY     54  28  37 E9G20     30.24F
FLIPPIN        SUNNY     54  27  35 SE10G18   30.19F
MTN HOME       SUNNY     55  25  31 S16G23    30.18F
$$

ARZ040-041-161800-
WEST CENTRAL ARKANSAS

CITY           SKY/WX    TMP DP  RH WIND       PRES   REMARKS
MENA           PTSUNNY   57  32  38 SE10G18   30.16F
MOUNT IDA      PTSUNNY   54  31  41 S10G18    30.16F
$$

ARZ009-017-025-026-028-161800-
NORTHEAST ARKANSAS

CITY           SKY/WX    TMP DP  RH WIND       PRES   REMARKS
CORNING          N/A     50  28  43 SE10G17   30.29F
JONESBORO      SUNNY     50  28  42 VRB7G16   30.27F
NEWPORT        SUNNY     52  31  44 SE12      30.28F
WALNUT RIDGE   SUNNY     52  30  43 SE9       30.28F
BLYTHEVILLE    SUNNY     51  27  39 E7        30.29F
NW BLYTHEVILLE MOSUNNY   52  27  37 E9        30.28F
$$

ARZ022-023-033-042-044-161800-
CENTRAL ARKANSAS

CITY           SKY/WX    TMP DP  RH WIND       PRES   REMARKS
LITTLE ROCK    MOSUNNY   55  30  38 SE14G21   30.24F
N LITTLE ROCK  MOSUNNY   53  33  47 SE12G17   30.24F
JACKSONVILLE   SUNNY     53  31  41 E12G18    30.24F
SEARCY         SUNNY     54  32  43 SE10      30.27F
HOT SPRINGS    MOSUNNY   56  27  32 SE9G17    30.21F
RUSSELLVILLE   MOSUNNY   55  28  35 VRB7      30.19F
CLINTON        FAIR      55  30  38 S10       30.22F
$$

ARZ036-161800-
EAST ARKANSAS

CITY           SKY/WX    TMP DP  RH WIND       PRES   REMARKS
WEST MEMPHIS   MOSUNNY   52  26  36 E7        30.25F
$$

ARZ050-053-066-070-073-161800-
SOUTHWEST ARKANSAS

CITY           SKY/WX    TMP DP  RH WIND       PRES   REMARKS
ARKADELPHIA    FAIR      57  33  40 SE7       30.22F
CAMDEN         SUNNY     57  27  30 MISG      30.23F
TEXARKANA      MOSUNNY   57  33  40 S13       30.20F
EL DORADO      SUNNY     55  30  38 E10       30.23F
DE QUEEN       PTSUNNY   57  35  43 SE12G18   30.17F
$$

ARZ056-057-069-161800-
SOUTHEAST ARKANSAS

CITY           SKY/WX    TMP DP  RH WIND       PRES   REMARKS
PINE BLUFF     SUNNY     53  33  46 SE14      30.25F
STUTTGART      SUNNY     54  30  40 E12       30.26F
MONTICELLO     SUNNY     54  26  34 SE8G17    30.24F

$$





USA.gov is the U.S. government's official web portal to all federal, state and local government web resources and services.